Weather History for Middleton, WI

Change the Weather History Date:

Saturday, February 1, 2014

  Actual Average (KMSN) Record (KMSN)
Temperature  
Mean Temperature 14 °F 20 °F  
Max Temperature 22 °F 28 °F 47 °F (1968)
Min Temperature 7 °F 12 °F -28 °F (1985)
Degree Days  
Heating Degree Days 50 45  
Month to date heating degree days 45  
Since 1 July heating degree days 4358  
Cooling Degree Days 0 0  
Month to date cooling degree days 0  
Year to date cooling degree days 0  
Moisture  
Dew Point 8 °F    
Average Humidity 76    
Maximum Humidity 85    
Minimum Humidity 61    
Precipitation  
Precipitation 0.01 in 0.04 in 0.46 in (1915)
Month to date precipitation 0.04  
Year to date precipitation 1.27  
Snow  
Snow 0.00 in 0.40 in 8.30 in (2011)
Month to date snowfall 0.4  
Since 1 July snowfall 30.9  
Snow Depth -    
Sea Level Pressure  
Sea Level Pressure 29.99 in    
Wind  
Wind Speed 2 mph (North)    
Max Wind Speed 12 mph    
Max Gust Speed -    
Visibility 7 miles    
Events      
T = Trace of Precipitation, MM = Missing Value Source: NWS Daily Summary

Daily Weather History Graph

Daily Weather History Graph

Search for Another Location

Airport:

Trip Planner

Search our weather history database for the weather conditions in past years. The results will help you decide how hot, cold, wet, or windy it might be!

Date:

Astronomy

Feb. 01, 2014 Rise Set
Actual Time 7:13 AM CST 5:10 PM CST
Civil Twilight 6:43 AM CST 5:40 PM CST
Nautical Twilight 6:09 AM CST 6:14 PM CST
Astronomical Twilight 5:35 AM CST 6:48 PM CST
Moon 7:58 AM CST 7:51 PM CST
Length of Visible Light 10h 57m
Length of Day
9h 57m
Waxing Crescent, 5% of the Moon is Illuminated
Feb 1
Waxing Crescent
Feb 6
First Quarter
Feb 14
Full
Feb 22
Last Quarter
Mar 1
New

Hourly Weather History & Observations

Time (CST) Temp. Windchill Dew Point Humidity Pressure Visibility Wind Dir Wind Speed Gust Speed Precip Events Conditions
12:15 AM 7.3 °F - -0.6 °F 70% 30.06 in 10.0 mi Calm Calm - N/A   Overcast
12:35 AM 8.1 °F - -0.6 °F 68% 30.05 in 10.0 mi Calm Calm - N/A   Overcast
12:55 AM 8.6 °F - -0.2 °F 67% 30.05 in 10.0 mi Calm Calm - N/A   Overcast
1:15 AM 9.1 °F - -0.2 °F 66% 30.04 in 10.0 mi Calm Calm - N/A   Overcast
1:35 AM 9.5 °F - -0.8 °F 63% 30.03 in 10.0 mi Calm Calm - N/A   Overcast
1:55 AM 9.9 °F - -0.4 °F 63% 30.04 in 10.0 mi Calm Calm - N/A   Overcast
2:15 AM 10.2 °F - -0.9 °F 61% 30.04 in 10.0 mi Calm Calm - N/A   Overcast
2:35 AM 10.4 °F - 0.1 °F 63% 30.03 in 4.0 mi Calm Calm - N/A   Overcast
2:55 AM 9.9 °F - 3.0 °F 74% 30.02 in 1.8 mi Calm Calm - N/A   Overcast
3:15 AM 10.2 °F - 4.8 °F 79% 30.02 in 1.5 mi Calm Calm - N/A   Overcast
3:35 AM 10.2 °F - 5.4 °F 81% 30.01 in 2.0 mi Calm Calm - N/A   Overcast
3:55 AM 10.4 °F - 5.9 °F 82% 30.01 in 1.8 mi Calm Calm - N/A   Overcast
4:15 AM 10.4 °F - 5.9 °F 82% 30.01 in 1.2 mi Calm Calm - N/A   Overcast
4:35 AM 10.4 °F - 5.9 °F 82% 30.00 in 1.8 mi Calm Calm - N/A   Overcast
4:55 AM 10.9 °F - 6.4 °F 82% 30.01 in 1.8 mi Calm Calm - N/A   Overcast
5:15 AM 10.9 °F 1.4 °F 6.6 °F 83% 29.97 in 3.0 mi NE 5.8 mph - 0.01 in   Overcast
5:35 AM 10.9 °F -0.8 °F 6.4 °F 82% 29.97 in 2.5 mi NNE 8.1 mph - 0.01 in   Overcast
5:55 AM 10.6 °F -1.3 °F 6.1 °F 82% 29.97 in 2.5 mi NNE 8.1 mph - 0.01 in   Overcast
6:15 AM 10.9 °F 2.9 °F 6.4 °F 82% 29.99 in 4.0 mi NE 4.6 mph - N/A   Overcast
6:35 AM 10.9 °F 4.7 °F 6.4 °F 82% 29.99 in 1.5 mi ENE 3.5 mph - N/A   Overcast
6:55 AM 10.9 °F 1.4 °F 6.4 °F 82% 29.98 in 2.0 mi NE 5.8 mph - N/A   Overcast
7:15 AM 11.1 °F 4.9 °F 6.6 °F 82% 29.99 in 1.2 mi ENE 3.5 mph - N/A   Overcast
7:35 AM 11.3 °F - 6.8 °F 82% 29.99 in 1.2 mi Calm Calm - N/A   Overcast
7:55 AM 11.3 °F 5.1 °F 6.8 °F 82% 29.99 in 1.0 mi ENE 3.5 mph - N/A   Overcast
8:15 AM 11.3 °F 5.1 °F 6.8 °F 82% 29.98 in 1.0 mi ENE 3.5 mph - N/A   Overcast
8:35 AM 12.0 °F 5.9 °F 7.2 °F 81% 29.96 in 1.5 mi ENE 3.5 mph - N/A   Overcast
8:55 AM 12.2 °F 6.1 °F 7.3 °F 81% 29.96 in 1.5 mi ENE 3.5 mph - N/A   Overcast
9:15 AM 12.6 °F 4.8 °F 7.3 °F 80% 29.95 in 2.0 mi NNE 4.6 mph - N/A   Overcast
9:35 AM 12.9 °F 3.8 °F 7.5 °F 79% 29.96 in 3.0 mi NE 5.8 mph - N/A   Overcast
9:55 AM 12.9 °F 3.8 °F 7.3 °F 78% 29.96 in 10.0 mi NE 5.8 mph - N/A   Scattered Clouds
10:15 AM 13.3 °F 3.0 °F 7.7 °F 78% 29.95 in 10.0 mi NNE 6.9 mph - N/A   Scattered Clouds
10:35 AM 14.0 °F 5.1 °F 7.5 °F 75% 29.96 in 10.0 mi NNE 5.8 mph - N/A   Scattered Clouds
10:55 AM 14.2 °F 6.7 °F 7.7 °F 75% 29.96 in 10.0 mi NNE 4.6 mph - N/A   Scattered Clouds
11:15 AM 15.3 °F 7.9 °F 8.2 °F 74% 29.97 in 10.0 mi North 4.6 mph - N/A   Clear
11:35 AM 16.0 °F 10.4 °F 8.6 °F 73% 29.95 in 10.0 mi North 3.5 mph - N/A   Mostly Cloudy
11:55 AM 16.7 °F 11.2 °F 9.5 °F 73% 29.95 in 5.0 mi NNE 3.5 mph - N/A   Overcast
12:15 PM 17.1 °F - 9.9 °F 73% 29.94 in 4.0 mi Calm Calm - N/A   Overcast
12:35 PM 17.1 °F - 10.0 °F 74% 29.95 in 4.0 mi Calm Calm - N/A   Overcast
12:55 PM 18.0 °F - 11.1 °F 75% 29.94 in 5.0 mi Calm Calm - N/A   Scattered Clouds
1:15 PM 18.9 °F 12.1 °F 11.5 °F 73% 29.94 in 10.0 mi North 4.6 mph - N/A   Scattered Clouds
1:35 PM 19.8 °F 11.9 °F 12.4 °F 73% 29.93 in 4.0 mi North 5.8 mph - N/A   Overcast
1:55 PM 19.9 °F 12.1 °F 12.9 °F 74% 29.93 in 7.0 mi North 5.8 mph - N/A   Mostly Cloudy
2:15 PM 20.1 °F 15.2 °F 12.9 °F 74% 29.92 in 7.0 mi North 3.5 mph - N/A   Scattered Clouds
2:35 PM 20.1 °F 13.6 °F 13.1 °F 74% 29.93 in 10.0 mi NNW 4.6 mph - N/A   Clear
2:55 PM 20.3 °F 13.8 °F 13.1 °F 74% 29.93 in 10.0 mi North 4.6 mph - N/A   Clear
3:15 PM 19.8 °F - 12.9 °F 75% 29.94 in 10.0 mi Calm Calm - N/A   Clear
3:35 PM 18.1 °F - 11.5 °F 75% 29.94 in 10.0 mi Calm Calm - N/A   Clear
3:55 PM 18.1 °F - 12.0 °F 77% 29.94 in 10.0 mi Calm Calm - N/A   Clear
4:15 PM 18.9 °F - 12.0 °F 75% 29.94 in 10.0 mi Calm Calm - N/A   Clear
4:35 PM 14.9 °F - 9.5 °F 79% 29.95 in 10.0 mi Calm Calm - N/A   Clear
4:55 PM 16.0 °F - 10.6 °F 79% 29.96 in 10.0 mi Calm Calm - N/A   Clear
5:15 PM 12.0 °F - 8.1 °F 84% 29.96 in 10.0 mi Calm Calm - N/A   Clear
5:35 PM 11.8 °F - 8.2 °F 85% 29.97 in 10.0 mi Calm Calm - N/A   Mostly Cloudy
5:55 PM 12.9 °F - 9.0 °F 84% 29.98 in 10.0 mi Calm Calm - N/A   Overcast
6:15 PM 15.4 °F - 11.3 °F 84% 29.99 in 10.0 mi Calm Calm - N/A   Overcast
6:35 PM 18.3 °F - 13.3 °F 81% 29.99 in 10.0 mi Calm Calm - N/A   Overcast
6:55 PM 18.0 °F - 12.9 °F 81% 30.00 in 10.0 mi Calm Calm - N/A   Overcast
7:15 PM 19.9 °F - 14.2 °F 78% 30.00 in 10.0 mi Calm Calm - N/A   Overcast
7:35 PM 21.2 °F 12.6 °F 15.4 °F 78% 30.01 in 10.0 mi West 6.9 mph - N/A   Overcast
7:55 PM 21.4 °F 12.8 °F 15.4 °F 78% 30.02 in 10.0 mi West 6.9 mph - N/A   Overcast
8:15 PM 21.6 °F 12.1 °F 15.8 °F 78% 30.03 in 10.0 mi West 8.1 mph - N/A   Overcast
8:35 PM 22.1 °F 15.9 °F 15.8 °F 77% 30.04 in 10.0 mi NW 4.6 mph - N/A   Overcast
8:55 PM 22.6 °F 14.3 °F 15.8 °F 75% 30.05 in 10.0 mi WNW 6.9 mph - N/A   Overcast
9:15 PM 21.9 °F 11.7 °F 14.0 °F 72% 30.05 in 10.0 mi NW 9.2 mph - N/A   Overcast
9:35 PM 21.0 °F 9.3 °F 11.7 °F 67% 30.07 in 10.0 mi NW 11.5 mph - N/A   Overcast
9:55 PM 18.5 °F 9.3 °F 9.7 °F 68% 30.08 in 10.0 mi NW 6.9 mph - N/A   Mostly Cloudy
10:15 PM 14.7 °F 7.3 °F 7.5 °F 73% 30.08 in 10.0 mi NW 4.6 mph - N/A   Scattered Clouds
10:35 PM 13.8 °F 3.7 °F 7.5 °F 76% 30.08 in 10.0 mi NW 6.9 mph - N/A   Clear
10:55 PM 12.6 °F 2.2 °F 5.9 °F 75% 30.09 in 10.0 mi NW 6.9 mph - N/A   Clear
11:15 PM 7.5 °F -1.1 °F 1.4 °F 76% 30.09 in 10.0 mi NW 4.6 mph - N/A   Clear
11:30 PM 7.0 °F 0.1 °F 1.8 °F 79% 30.10 in 10.0 mi NNW 3.5 mph - N/A   Clear
11:55 PM 7.7 °F -2.4 °F 3.2 °F 82% 30.10 in 10.0 mi NW 5.8 mph - N/A   Clear